HLF7AM ELLX-EKBI

Flight info

Callsign HLF7AM
Flight time 1h 2m
Altitude 35000
Route BITBU DCT ROPUV DCT PIPEP DCT OBOKA DCT GMH DCT TINSA DCT OSDIK/N0466F340 DCT OSNAD/N0469F350 M170 EXPUH DCT ZEPHE DCT BASUM M170 STADE DCT TOPRA/N0467F340 DCT HINHU M105 EXNEL DCT ALASA M852 ALS P615 ASBIL DCT LOKSA
Aircraft B77L/H-SDE1E2E3FGHIJ2J3J4J5M1RWXY/LB1D1

Departure

Time 2026-05-07 17:18
Airport Luxembourg-Findel International Airport (ELLX)

Arrival

Time 2026-05-07 18:20
Airport Billund Airport (EKBI)
Time Latitude Longitude Altitude Speed Heading
2026-05-07 16:34 49.63486 6.22568 1224 ft 0 kts 58°
2026-05-07 17:04 49.63485 6.22565 1223 ft 3 kts 58°
2026-05-07 17:04 49.63473 6.22530 1224 ft 4 kts 69°
2026-05-07 17:04 49.63466 6.22491 1224 ft 4 kts 88°
2026-05-07 17:05 49.63469 6.22453 1225 ft 4 kts 114°
2026-05-07 17:05 49.63482 6.22423 1225 ft 4 kts 144°
2026-05-07 17:05 49.63489 6.22415 1225 ft 1 kts 150°
2026-05-07 17:10 49.63486 6.22418 1225 ft 3 kts 150°
2026-05-07 17:10 49.63472 6.22431 1225 ft 4 kts 150°
2026-05-07 17:10 49.63436 6.22463 1224 ft 8 kts 150°
2026-05-07 17:10 49.63379 6.22507 1223 ft 11 kts 167°
2026-05-07 17:11 49.63324 6.22436 1224 ft 11 kts 242°
2026-05-07 17:11 49.63290 6.22329 1227 ft 11 kts 244°
2026-05-07 17:11 49.63257 6.22223 1228 ft 11 kts 244°
2026-05-07 17:11 49.63223 6.22115 1231 ft 11 kts 244°
2026-05-07 17:12 49.63190 6.22007 1233 ft 11 kts 244°
2026-05-07 17:12 49.63154 6.21890 1232 ft 13 kts 244°
2026-05-07 17:12 49.63112 6.21755 1232 ft 14 kts 244°
2026-05-07 17:12 49.63070 6.21618 1232 ft 15 kts 244°
2026-05-07 17:13 49.63023 6.21470 1233 ft 15 kts 244°
2026-05-07 17:13 49.62977 6.21320 1251 ft 16 kts 244°
2026-05-07 17:13 49.62931 6.21170 1252 ft 15 kts 245°
2026-05-07 17:13 49.62883 6.21021 1254 ft 15 kts 243°
2026-05-07 17:14 49.62834 6.20868 1257 ft 17 kts 243°
2026-05-07 17:14 49.62774 6.20718 1260 ft 17 kts 226°
2026-05-07 17:14 49.62685 6.20605 1255 ft 17 kts 216°
2026-05-07 17:14 49.62607 6.20483 1257 ft 15 kts 229°
2026-05-07 17:15 49.62543 6.20368 1255 ft 8 kts 230°
2026-05-07 17:15 49.62502 6.20289 1251 ft 11 kts 235°
2026-05-07 17:15 49.62461 6.20181 1246 ft 13 kts 240°
2026-05-07 17:15 49.62409 6.20044 1229 ft 17 kts 239°
2026-05-07 17:16 49.62346 6.19877 1224 ft 19 kts 240°
2026-05-07 17:16 49.62279 6.19693 1213 ft 22 kts 240°
2026-05-07 17:16 49.62184 6.19567 1206 ft 18 kts 171°
2026-05-07 17:16 49.62101 6.19683 1208 ft 17 kts 81°
2026-05-07 17:17 49.62210 6.19978 1226 ft 58 kts 60°
2026-05-07 17:17 49.62533 6.20843 1258 ft 126 kts 60°
2026-05-07 17:17 49.63061 6.22282 1316 ft 171 kts 60°
2026-05-07 17:17 49.63671 6.23929 1831 ft 188 kts 58°
2026-05-07 17:18 49.64335 6.25748 2603 ft 193 kts 59°
2026-05-07 17:18 49.64997 6.27551 3269 ft 201 kts 57°
2026-05-07 17:18 49.65743 6.29478 3710 ft 217 kts 57°
2026-05-07 17:18 49.66533 6.31561 4068 ft 242 kts 58°
2026-05-07 17:19 49.67417 6.33929 4637 ft 257 kts 58°
2026-05-07 17:19 49.68305 6.36329 5415 ft 264 kts 59°
2026-05-07 17:19 49.69133 6.38542 6138 ft 267 kts 54°
2026-05-07 17:19 49.70503 6.40460 6737 ft 271 kts 22°
2026-05-07 17:20 49.72269 6.41477 7461 ft 274 kts 18°
2026-05-07 17:20 49.74086 6.42475 8261 ft 279 kts 18°
2026-05-07 17:20 49.75921 6.43490 9097 ft 282 kts 18°
2026-05-07 17:20 49.77786 6.44530 9897 ft 288 kts 18°
2026-05-07 17:21 49.79698 6.45599 10483 ft 300 kts 18°
2026-05-07 17:21 49.81753 6.46755 10722 ft 328 kts 18°
2026-05-07 17:21 49.83991 6.48021 10934 ft 356 kts 19°
2026-05-07 17:21 49.86377 6.49379 11465 ft 372 kts 19°
2026-05-07 17:22 49.88839 6.50785 12288 ft 381 kts 19°
2026-05-07 17:22 49.91346 6.52217 13285 ft 387 kts 19°
2026-05-07 17:22 49.93898 6.53675 14215 ft 393 kts 19°
2026-05-07 17:22 49.96462 6.55201 15104 ft 398 kts 22°
2026-05-07 17:23 49.98948 6.57174 15936 ft 405 kts 29°
2026-05-07 17:23 50.01304 6.59623 16811 ft 411 kts 36°
2026-05-07 17:23 50.03590 6.62364 17631 ft 417 kts 37°
2026-05-07 17:23 50.05891 6.65160 18422 ft 423 kts 37°
2026-05-07 17:24 50.08227 6.67995 19126 ft 428 kts 37°
2026-05-07 17:24 50.10596 6.70855 19861 ft 433 kts 37°
2026-05-07 17:24 50.12990 6.73733 20565 ft 437 kts 37°
2026-05-07 17:24 50.15415 6.76642 21260 ft 442 kts 36°
2026-05-07 17:25 50.17862 6.79578 21990 ft 446 kts 37°
2026-05-07 17:25 50.20337 6.82551 22710 ft 451 kts 36°
2026-05-07 17:25 50.22904 6.85386 23404 ft 455 kts 31°
2026-05-07 17:25 50.25675 6.87824 24013 ft 458 kts 27°
2026-05-07 17:26 50.28512 6.90114 24611 ft 461 kts 26°
2026-05-07 17:26 50.31378 6.92405 25231 ft 464 kts 26°
2026-05-07 17:26 50.34251 6.94726 25829 ft 467 kts 27°
2026-05-07 17:26 50.37144 6.97094 26396 ft 470 kts 27°
2026-05-07 17:27 50.40047 6.99491 26935 ft 474 kts 27°
2026-05-07 17:27 50.42969 7.01913 27488 ft 477 kts 27°
2026-05-07 17:27 50.45896 7.04390 28022 ft 480 kts 29°
2026-05-07 17:27 50.48746 7.07168 28554 ft 484 kts 32°
2026-05-07 17:28 50.51567 7.10067 29035 ft 487 kts 33°
2026-05-07 17:28 50.54398 7.13018 29535 ft 490 kts 33°
2026-05-07 17:28 50.57239 7.15976 30078 ft 490 kts 32°
2026-05-07 17:28 50.60170 7.18720 30614 ft 489 kts 27°
2026-05-07 17:29 50.63257 7.20946 31132 ft 488 kts 22°
2026-05-07 17:29 50.66391 7.23000 31628 ft 488 kts 21°
2026-05-07 17:29 50.69529 7.25023 32098 ft 488 kts 21°
2026-05-07 17:29 50.72680 7.27057 32543 ft 489 kts 21°
2026-05-07 17:30 50.75826 7.29108 33002 ft 489 kts 21°
2026-05-07 17:30 50.78963 7.31175 33455 ft 489 kts 22°
2026-05-07 17:30 50.82103 7.33262 33919 ft 489 kts 22°
2026-05-07 17:30 50.85244 7.35362 34281 ft 490 kts 22°
2026-05-07 17:31 50.88379 7.37465 34594 ft 491 kts 22°
2026-05-07 17:31 50.91522 7.39578 34923 ft 491 kts 22°
2026-05-07 17:31 50.94689 7.41711 35234 ft 492 kts 22°
2026-05-07 17:31 50.97865 7.43851 35543 ft 492 kts 22°
2026-05-07 17:32 51.01066 7.46011 35851 ft 493 kts 22°
2026-05-07 17:32 51.04215 7.48137 36153 ft 493 kts 22°
2026-05-07 17:32 51.07378 7.50277 36439 ft 494 kts 22°
2026-05-07 17:32 51.09474 7.51696 36629 ft 494 kts 22°
2026-05-07 17:33 51.13721 7.54576 37001 ft 498 kts 22°
2026-05-07 17:33 51.16921 7.56750 37050 ft 501 kts 22°
2026-05-07 17:33 51.23315 7.61103 37064 ft 497 kts 22°
2026-05-07 17:34 51.29636 7.65422 37064 ft 492 kts 22°
2026-05-07 17:34 51.35921 7.69727 37076 ft 491 kts 22°
2026-05-07 17:35 51.42198 7.74040 37078 ft 491 kts 22°
2026-05-07 17:35 51.48482 7.78370 37080 ft 492 kts 22°
2026-05-07 17:36 51.54773 7.82718 37075 ft 493 kts 22°
2026-05-07 17:36 51.61073 7.87087 37083 ft 494 kts 22°
2026-05-07 17:37 51.67387 7.91477 37081 ft 494 kts 22°
2026-05-07 17:37 51.73705 7.95885 37080 ft 495 kts 22°
2026-05-07 17:38 51.80028 8.00309 37083 ft 495 kts 22°
2026-05-07 17:38 51.86353 8.04748 37084 ft 496 kts 22°
2026-05-07 17:39 51.92680 8.09203 37093 ft 496 kts 22°
2026-05-07 17:39 51.99002 8.13668 37087 ft 495 kts 22°
2026-05-07 17:40 52.05311 8.18138 37100 ft 495 kts 22°
2026-05-07 17:40 52.11620 8.22621 37090 ft 494 kts 22°
2026-05-07 17:41 52.17933 8.27035 37091 ft 493 kts 20°
2026-05-07 17:41 52.24354 8.30949 37094 ft 492 kts 19°
2026-05-07 17:42 52.30798 8.34725 37096 ft 492 kts 19°
2026-05-07 17:42 52.37233 8.38563 37089 ft 492 kts 19°
2026-05-07 17:43 52.43641 8.42454 37095 ft 492 kts 19°
2026-05-07 17:43 52.50052 8.46378 37092 ft 492 kts 19°
2026-05-07 17:44 52.56457 8.50309 37095 ft 491 kts 19°
2026-05-07 17:44 52.62859 8.54247 37082 ft 491 kts 19°
2026-05-07 17:45 52.69310 8.58226 37087 ft 491 kts 19°
2026-05-07 17:45 52.75712 8.62188 37087 ft 491 kts 19°
2026-05-07 17:46 52.82063 8.66131 37076 ft 491 kts 19°
2026-05-07 17:46 52.88458 8.70114 37074 ft 491 kts 20°
2026-05-07 17:47 52.94843 8.74102 37080 ft 491 kts 20°
2026-05-07 17:47 53.01231 8.78105 37083 ft 490 kts 20°
2026-05-07 17:48 53.07608 8.82114 37071 ft 490 kts 20°
2026-05-07 17:48 53.13977 8.86131 37070 ft 490 kts 20°
2026-05-07 17:49 53.19314 8.89507 37080 ft 489 kts 20°
2026-05-07 17:49 53.25681 8.93546 37073 ft 489 kts 20°
2026-05-07 17:50 53.32034 8.97588 37072 ft 489 kts 20°
2026-05-07 17:50 53.38418 9.01664 37070 ft 488 kts 20°
2026-05-07 17:51 53.44728 9.05706 37073 ft 487 kts 20°
2026-05-07 17:51 53.51060 9.09774 37075 ft 486 kts 20°
2026-05-07 17:52 53.57364 9.13838 37082 ft 486 kts 20°
2026-05-07 17:52 53.63670 9.17916 37086 ft 485 kts 20°
2026-05-07 17:53 53.69974 9.22005 36969 ft 487 kts 20°
2026-05-07 17:53 53.73147 9.24066 36374 ft 489 kts 21°
2026-05-07 17:53 53.76315 9.26127 35795 ft 485 kts 21°
2026-05-07 17:54 53.79412 9.28146 35222 ft 473 kts 21°
2026-05-07 17:54 53.82468 9.30143 34680 ft 468 kts 22°
2026-05-07 17:54 53.85496 9.32124 34127 ft 465 kts 22°
2026-05-07 17:54 53.88503 9.34095 33476 ft 461 kts 22°
2026-05-07 17:55 53.91473 9.36047 32824 ft 457 kts 22°
2026-05-07 17:55 53.94429 9.37992 32198 ft 454 kts 22°
2026-05-07 17:55 53.97363 9.39926 31578 ft 451 kts 22°
2026-05-07 17:55 54.00282 9.41852 30981 ft 448 kts 22°
2026-05-07 17:56 54.03181 9.43767 30382 ft 446 kts 22°
2026-05-07 17:56 54.06059 9.45671 29738 ft 443 kts 22°
2026-05-07 17:56 54.08923 9.47569 29054 ft 440 kts 22°
2026-05-07 17:56 54.11732 9.49432 28379 ft 426 kts 22°
2026-05-07 17:57 54.14480 9.51255 27724 ft 423 kts 22°
2026-05-07 17:57 54.16294 9.52461 27307 ft 422 kts 22°
2026-05-07 17:57 54.19944 9.54893 26482 ft 420 kts 21°
2026-05-07 17:57 54.22657 9.56705 25872 ft 418 kts 21°
2026-05-07 17:58 54.25368 9.58516 25287 ft 417 kts 21°
2026-05-07 17:58 54.28068 9.60321 24713 ft 416 kts 21°
2026-05-07 17:58 54.30753 9.62119 24135 ft 415 kts 21°
2026-05-07 17:58 54.33439 9.63922 23556 ft 414 kts 21°
2026-05-07 17:59 54.36117 9.65724 22902 ft 413 kts 21°
2026-05-07 17:59 54.38769 9.67509 22237 ft 404 kts 20°
2026-05-07 17:59 54.41345 9.69245 21570 ft 391 kts 20°
2026-05-07 17:59 54.43847 9.70932 20952 ft 385 kts 21°
2026-05-07 18:00 54.46345 9.72619 20357 ft 387 kts 20°
2026-05-07 18:00 54.48860 9.74318 19773 ft 389 kts 20°
2026-05-07 18:00 54.51384 9.76029 19190 ft 390 kts 20°
2026-05-07 18:00 54.53908 9.77741 18650 ft 390 kts 20°
2026-05-07 18:01 54.56402 9.79435 18050 ft 390 kts 20°
2026-05-07 18:01 54.58933 9.81159 17381 ft 381 kts 21°
2026-05-07 18:01 54.61327 9.82792 16740 ft 369 kts 20°
2026-05-07 18:01 54.63698 9.84409 16130 ft 367 kts 21°
2026-05-07 18:02 54.68559 9.87090 14913 ft 364 kts
2026-05-07 18:02 54.71057 9.87070 14363 ft 363 kts 354°
2026-05-07 18:02 54.73550 9.86389 13779 ft 362 kts 349°
2026-05-07 18:03 54.76049 9.85545 13322 ft 358 kts 348°
2026-05-07 18:03 54.78418 9.84715 13130 ft 346 kts 348°
2026-05-07 18:03 54.80761 9.83890 13133 ft 338 kts 348°
2026-05-07 18:03 54.83046 9.83093 13132 ft 340 kts 348°
2026-05-07 18:04 54.85363 9.82292 13121 ft 339 kts 348°
2026-05-07 18:04 54.87663 9.81503 13122 ft 336 kts 348°
2026-05-07 18:04 54.89952 9.80721 13128 ft 335 kts 349°
2026-05-07 18:04 54.92240 9.79943 13128 ft 335 kts 349°
2026-05-07 18:05 54.94524 9.79167 13141 ft 335 kts 349°
2026-05-07 18:05 54.96813 9.78390 13135 ft 335 kts 349°
2026-05-07 18:05 54.99107 9.77611 13131 ft 336 kts 349°
2026-05-07 18:05 55.01400 9.76831 13128 ft 336 kts 349°
2026-05-07 18:06 55.03696 9.76050 13130 ft 336 kts 349°
2026-05-07 18:06 55.05993 9.75268 13132 ft 336 kts 349°
2026-05-07 18:06 55.08292 9.74484 13133 ft 337 kts 349°
2026-05-07 18:06 55.10593 9.73699 13124 ft 337 kts 349°
2026-05-07 18:07 55.12893 9.72913 13128 ft 337 kts 349°
2026-05-07 18:07 55.15236 9.72111 12931 ft 340 kts 349°
2026-05-07 18:07 55.17508 9.71333 12319 ft 334 kts 349°
2026-05-07 18:07 55.19747 9.70565 11750 ft 322 kts 349°
2026-05-07 18:08 55.21928 9.69816 11205 ft 309 kts 349°
2026-05-07 18:08 55.23996 9.69105 10739 ft 297 kts 349°
2026-05-07 18:08 55.25996 9.68416 10317 ft 292 kts 349°
2026-05-07 18:08 55.28001 9.67726 9911 ft 294 kts 349°
2026-05-07 18:09 55.30003 9.67035 9451 ft 293 kts 349°
2026-05-07 18:09 55.32002 9.66345 9040 ft 291 kts 349°
2026-05-07 18:09 55.33965 9.65666 8776 ft 284 kts 349°
2026-05-07 18:09 55.35879 9.65003 8564 ft 278 kts 349°
2026-05-07 18:10 55.37772 9.64349 8316 ft 277 kts 349°
2026-05-07 18:10 55.39635 9.63705 8060 ft 277 kts 349°
2026-05-07 18:10 55.41545 9.63044 7809 ft 276 kts 349°
2026-05-07 18:10 55.43430 9.62390 7557 ft 276 kts 349°
2026-05-07 18:11 55.45313 9.61736 7309 ft 276 kts 349°
2026-05-07 18:11 55.46562 9.61302 7144 ft 276 kts 349°
2026-05-07 18:11 55.49073 9.60429 6814 ft 275 kts 349°
2026-05-07 18:11 55.50926 9.59783 6569 ft 274 kts 349°
2026-05-07 18:12 55.52780 9.59136 6290 ft 268 kts 349°
2026-05-07 18:12 55.54615 9.58496 5978 ft 261 kts 349°
2026-05-07 18:12 55.56328 9.57898 5623 ft 247 kts 348°
2026-05-07 18:12 55.57993 9.57315 5278 ft 235 kts 348°
2026-05-07 18:13 55.59533 9.56776 4939 ft 223 kts 348°
2026-05-07 18:13 55.61032 9.56251 4614 ft 218 kts 348°
2026-05-07 18:13 55.62505 9.55735 4296 ft 214 kts 348°
2026-05-07 18:13 55.63946 9.55229 4051 ft 209 kts 348°
2026-05-07 18:14 55.65351 9.54735 3750 ft 204 kts 347°
2026-05-07 18:14 55.66732 9.54250 3477 ft 199 kts 347°
2026-05-07 18:14 55.68058 9.53786 3290 ft 190 kts 347°
2026-05-07 18:14 55.69339 9.53337 3120 ft 186 kts 347°
2026-05-07 18:15 55.70607 9.52917 3073 ft 185 kts 348°
2026-05-07 18:15 55.71877 9.52499 3027 ft 187 kts 348°
2026-05-07 18:15 55.73162 9.52075 2997 ft 186 kts 346°
2026-05-07 18:15 55.74262 9.51034 2983 ft 179 kts 306°
2026-05-07 18:16 55.74684 9.48994 3027 ft 180 kts 275°
2026-05-07 18:16 55.74780 9.46736 3001 ft 185 kts 274°
2026-05-07 18:16 55.74858 9.44462 2988 ft 183 kts 271°
2026-05-07 18:16 55.74850 9.42220 2982 ft 181 kts 268°
2026-05-07 18:17 55.74794 9.39974 2761 ft 181 kts 267°
2026-05-07 18:17 55.74728 9.37792 2507 ft 171 kts 266°
2026-05-07 18:17 55.74665 9.35782 2300 ft 154 kts 267°
2026-05-07 18:17 55.74606 9.33935 2089 ft 147 kts 266°
2026-05-07 18:18 55.74521 9.32126 1936 ft 148 kts 266°
2026-05-07 18:18 55.74475 9.30284 1749 ft 150 kts 269°
2026-05-07 18:18 55.74449 9.28422 1515 ft 150 kts 266°
2026-05-07 18:18 55.74375 9.26575 1257 ft 149 kts 266°
2026-05-07 18:19 55.74322 9.24757 1025 ft 148 kts 268°
2026-05-07 18:19 55.74267 9.22934 825 ft 147 kts 268°
2026-05-07 18:19 55.74207 9.21114 639 ft 147 kts 269°
2026-05-07 18:19 55.74158 9.19278 424 ft 150 kts 269°
2026-05-07 18:20 55.74099 9.17409 235 ft 151 kts 269°
2026-05-07 18:20 55.74048 9.15711 224 ft 120 kts 267°
2026-05-07 18:20 55.74020 9.14669 227 ft 43 kts 265°
2026-05-07 18:20 55.73915 9.14352 224 ft 20 kts 227°
2026-05-07 18:21 55.73869 9.14240 228 ft 4 kts 242°
2026-05-07 18:21 55.73862 9.14219 227 ft 1 kts 243°
2026-05-07 18:21 55.73857 9.14200 222 ft 2 kts 243°
2026-05-07 18:21 55.73850 9.14171 225 ft 3 kts 251°
2026-05-07 18:22 55.73844 9.14132 224 ft 4 kts 258°
2026-05-07 18:22 55.73841 9.14101 220 ft 4 kts 260°
2026-05-07 18:22 55.73832 9.14029 227 ft 5 kts 238°
2026-05-07 18:22 55.73798 9.14015 220 ft 5 kts 184°
2026-05-07 18:23 55.73774 9.14015 220 ft 0 kts 179°
2026-05-07 18:23 55.73769 9.14015 220 ft 1 kts 179°
2026-05-07 18:23 55.73764 9.14016 220 ft 0 kts 179°